,,,PA_Meas_PMT16A,,PR_Meas_QMR101_102,,RH_Meas_QMH101,,SR_Meas_QMS101,,TA_Meas_QMH101,,GenWind,,GenWind,
date,time,status,PA,status,PR,status,RH,status,SR,status,TA,status,DirAvg,status,SpdAvg,
2010-03-26, 00:00:04,VALID,1000.18,VALID,0,VALID,87.0311,VALID,0,VALID,23.7597,VALID,101,VALID,0.796484,
2010-03-26, 00:01:04,VALID,1000.18,VALID,0,VALID,86.7946,VALID,0,VALID,23.7579,VALID,106,VALID,0.338281,
2010-03-26, 00:02:04,VALID,1000.18,VALID,0,VALID,86.7869,VALID,0,VALID,23.7793,VALID,106,VALID,0.269141,
2010-03-26, 00:03:04,VALID,1000.16,VALID,0,VALID,86.7869,VALID,0,VALID,23.7597,VALID,106,VALID,0,
2010-03-26, 00:04:04,VALID,1000.13,VALID,0,VALID,86.9166,VALID,0,VALID,23.7189,VALID,106,VALID,0.194141,
2010-03-26, 00:05:04,VALID,1000.11,VALID,0,VALID,86.9395,VALID,0,VALID,23.7207,VALID,106,VALID,0,
2010-03-26, 00:06:04,VALID,1000.08,VALID,0,VALID,86.9472,VALID,0,VALID,23.7012,VALID,106,VALID,0,
2010-03-26, 00:07:04,VALID,1000.08,VALID,0,VALID,87.0692,VALID,0,VALID,23.6799,VALID,106,VALID,0,
2010-03-26, 00:08:04,VALID,1000.04,VALID,0,VALID,87.2218,VALID,0,VALID,23.6817,VALID,105,VALID,0.269922,
2010-03-26, 00:09:04,VALID,1000,VALID,0,VALID,87.2905,VALID,0,VALID,23.6817,VALID,105,VALID,0.275391,
2010-03-26, 00:10:04,VALID,999.991,VALID,0,VALID,87.3668,VALID,0,VALID,23.6817,VALID,106,VALID,0.437891,
2010-03-26, 00:11:04,VALID,999.954,VALID,0,VALID,87.3439,VALID,0,VALID,23.7012,VALID,106,VALID,0.466016,
2010-03-26, 00:12:04,VALID,999.97,VALID,0,VALID,87.3744,VALID,0,VALID,23.7012,VALID,107,VALID,0.473828,
2010-03-26, 00:13:04,VALID,999.911,VALID,0,VALID,87.3515,VALID,0,VALID,23.7207,VALID,108,VALID,0.55625,
2010-03-26, 00:14:04,VALID,999.915,VALID,0,VALID,87.3897,VALID,0,VALID,23.7012,VALID,120,VALID,0.537109,
2010-03-26, 00:15:04,VALID,999.904,VALID,0,VALID,87.4049,VALID,0,VALID,23.7207,VALID,120,VALID,0.434766,
2010-03-26, 00:16:04,VALID,999.916,VALID,0,VALID,87.3668,VALID,0,VALID,23.7207,VALID,120,VALID,0.392578,
2010-03-26, 00:17:04,VALID,999.919,VALID,0,VALID,87.3363,VALID,0,VALID,23.7012,VALID,120,VALID,0.306641,
2010-03-26, 00:18:04,VALID,999.894,VALID,0,VALID,87.1608,VALID,0,VALID,23.7207,VALID,120,VALID,0.358594,
2010-03-26, 00:19:04,VALID,999.875,VALID,0,VALID,87.1837,VALID,0,VALID,23.6817,VALID,119,VALID,0.511719,
2010-03-26, 00:20:04,VALID,999.861,VALID,0,VALID,87.466,VALID,0,VALID,23.6817,VALID,108,VALID,0.527344,
2010-03-26, 00:21:04,VALID,999.85,VALID,0,VALID,87.4354,VALID,0,VALID,23.6622,VALID,106,VALID,0.0402344,
2010-03-26, 00:22:04,VALID,999.812,VALID,0,VALID,87.5728,VALID,0.112286,VALID,23.6622,VALID,95,VALID,0.424609,
2010-03-26, 00:23:04,VALID,999.791,VALID,0,VALID,87.4507,VALID,0,VALID,23.6622,VALID,95,VALID,0.529688,
2010-03-26, 00:24:04,VALID,999.774,VALID,0,VALID,87.6033,VALID,0,VALID,23.6622,VALID,95,VALID,0.165234,
2010-03-26, 00:25:04,VALID,999.738,VALID,0,VALID,87.6109,VALID,0,VALID,23.6409,VALID,95,VALID,0,
2010-03-26, 00:26:04,VALID,999.714,VALID,0,VALID,87.5194,VALID,0,VALID,23.6427,VALID,95,VALID,0,
2010-03-26, 00:27:04,VALID,999.68,VALID,0,VALID,87.527,VALID,0,VALID,23.6036,VALID,95,VALID,0,
2010-03-26, 00:28:04,VALID,999.7,VALID,0,VALID,87.4049,VALID,0,VALID,23.5646,VALID,95,VALID,0,
2010-03-26, 00:29:04,VALID,999.656,VALID,0,VALID,87.321,VALID,0,VALID,23.5256,VALID,95,VALID,0,
2010-03-26, 00:30:04,VALID,999.635,VALID,0,VALID,87.6491,VALID,0,VALID,23.4671,VALID,95,VALID,0,
2010-03-26, 00:31:04,VALID,999.59,VALID,0,VALID,87.7864,VALID,0,VALID,23.428,VALID,95,VALID,0,
2010-03-26, 00:32:04,VALID,999.596,VALID,0,VALID,87.9543,VALID,0,VALID,23.389,VALID,95,VALID,0,
2010-03-26, 00:33:04,VALID,999.574,VALID,0,VALID,88.0534,VALID,0,VALID,23.3695,VALID,95,VALID,0,
2010-03-26, 00:34:04,VALID,999.52,VALID,0,VALID,88.0916,VALID,0,VALID,23.3305,VALID,95,VALID,0,
2010-03-26, 00:35:04,VALID,999.514,VALID,0,VALID,88.1374,VALID,0,VALID,23.2915,VALID,95,VALID,0,
2010-03-26, 00:36:04,VALID,999.465,VALID,0,VALID,88.2442,VALID,0,VALID,23.2312,VALID,95,VALID,0,
2010-03-26, 00:37:04,VALID,999.436,VALID,0,VALID,88.3739,VALID,0,VALID,23.2134,VALID,95,VALID,0,
2010-03-26, 00:38:04,VALID,999.442,VALID,0,VALID,88.5723,VALID,0,VALID,23.1726,VALID,95,VALID,0,
2010-03-26, 00:39:04,VALID,999.419,VALID,0,VALID,88.7706,VALID,0,VALID,23.1744,VALID,95,VALID,0,
2010-03-26, 00:40:04,VALID,999.438,VALID,0,VALID,88.8317,VALID,0,VALID,23.1549,VALID,95,VALID,0,
2010-03-26, 00:41:04,VALID,999.423,VALID,0,VALID,88.8393,VALID,0,VALID,23.0964,VALID,95,VALID,0,
2010-03-26, 00:42:04,VALID,999.4,VALID,0,VALID,89.2513,VALID,0,VALID,23.0964,VALID,95,VALID,0,
2010-03-26, 00:43:04,VALID,999.374,VALID,0,VALID,89.7091,VALID,0,VALID,23.1159,VALID,95,VALID,0,
2010-03-26, 00:44:04,VALID,999.398,VALID,0,VALID,90.06,VALID,0,VALID,23.1531,VALID,95,VALID,0.111328,
2010-03-26, 00:45:04,VALID,999.358,VALID,0,VALID,90.06,VALID,0,VALID,23.1939,VALID,95,VALID,0,
2010-03-26, 00:46:04,VALID,999.365,VALID,0,VALID,90.2355,VALID,0,VALID,23.2134,VALID,95,VALID,0,
2010-03-26, 00:47:04,VALID,999.352,VALID,0,VALID,90.4339,VALID,0,VALID,23.2312,VALID,95,VALID,0,
2010-03-26, 00:48:04,VALID,999.343,VALID,0,VALID,90.2737,VALID,0,VALID,23.2702,VALID,95,VALID,0,
2010-03-26, 00:49:04,VALID,999.349,VALID,0,VALID,90.2203,VALID,0,VALID,23.2719,VALID,95,VALID,0,
2010-03-26, 00:50:04,VALID,999.338,VALID,0,VALID,90.1897,VALID,0,VALID,23.2719,VALID,95,VALID,0,
2010-03-26, 00:51:04,VALID,999.318,VALID,0,VALID,90.0906,VALID,0,VALID,23.2915,VALID,95,VALID,0,
2010-03-26, 00:52:04,VALID,999.275,VALID,0,VALID,89.999,VALID,0,VALID,23.2915,VALID,95,VALID,0,
2010-03-26, 00:53:04,VALID,999.257,VALID,0,VALID,89.9227,VALID,0,VALID,23.311,VALID,95,VALID,0,
2010-03-26, 00:54:04,VALID,999.239,VALID,0,VALID,89.793,VALID,0,VALID,23.3305,VALID,95,VALID,0,
2010-03-26, 00:55:04,VALID,999.21,VALID,0,VALID,89.793,VALID,0,VALID,23.311,VALID,95,VALID,0,
2010-03-26, 00:56:05,VALID,999.181,VALID,0,VALID,89.7777,VALID,0,VALID,23.35,VALID,95,VALID,0,
2010-03-26, 00:57:05,VALID,999.176,VALID,0,VALID,89.6251,VALID,0.112286,VALID,23.3677,VALID,95,VALID,0,
2010-03-26, 00:58:05,VALID,999.184,VALID,0,VALID,89.3505,VALID,0,VALID,23.3287,VALID,99,VALID,0,
2010-03-26, 00:59:05,VALID,999.144,VALID,0,VALID,88.9614,VALID,0,VALID,23.311,VALID,101,VALID,0,
2010-03-26, 01:00:05,VALID,999.127,VALID,0,VALID,88.824,VALID,0,VALID,23.2524,VALID,106,VALID,0.337109,
2010-03-26, 01:01:05,VALID,999.072,VALID,0,VALID,88.8546,VALID,0,VALID,23.2117,VALID,106,VALID,0.418359,
2010-03-26, 01:02:05,VALID,999.098,VALID,0,VALID,88.9309,VALID,0,VALID,23.1921,VALID,106,VALID,0.462109,
2010-03-26, 01:03:05,VALID,999.067,VALID,0,VALID,89.0834,VALID,0,VALID,23.1921,VALID,106,VALID,0.555469,
2010-03-26, 01:04:05,VALID,999.036,VALID,0,VALID,89.2208,VALID,0,VALID,23.1939,VALID,106,VALID,0.611719,
2010-03-26, 01:05:05,VALID,999.044,VALID,0,VALID,89.1826,VALID,0,VALID,23.1744,VALID,106,VALID,0.540234,
2010-03-26, 01:06:05,VALID,998.995,VALID,0,VALID,89.0987,VALID,0,VALID,23.1354,VALID,109,VALID,0.714844,
2010-03-26, 01:07:05,VALID,999.02,VALID,0,VALID,89.0682,VALID,0,VALID,23.0964,VALID,112,VALID,0.81875,
2010-03-26, 01:08:05,VALID,999.043,VALID,0,VALID,89.1368,VALID,0,VALID,23.0378,VALID,117,VALID,0.785937,
2010-03-26, 01:09:05,VALID,999.028,VALID,0,VALID,89.1292,VALID,0,VALID,22.9988,VALID,119,VALID,0.834375,
2010-03-26, 01:10:05,VALID,999.01,VALID,0,VALID,89.0529,VALID,0,VALID,22.9598,VALID,123,VALID,0.801953,
2010-03-26, 01:11:05,VALID,998.996,VALID,0,VALID,88.9385,VALID,0,VALID,22.9208,VALID,127,VALID,0.569922,
2010-03-26, 01:12:05,VALID,998.988,VALID,0,VALID,89.03,VALID,0,VALID,22.8818,VALID,127,VALID,0.406641,
2010-03-26, 01:13:05,VALID,998.962,VALID,0,VALID,89.0758,VALID,0,VALID,22.8818,VALID,127,VALID,0.075,
2010-03-26, 01:14:05,VALID,998.925,VALID,0,VALID,89.0453,VALID,0,VALID,22.8818,VALID,127,VALID,0,
2010-03-26, 01:15:05,VALID,998.89,VALID,0,VALID,89.1292,VALID,0,VALID,22.8605,VALID,127,VALID,0,
2010-03-26, 01:16:05,VALID,998.93,VALID,0,VALID,89.0911,VALID,0,VALID,22.8818,VALID,127,VALID,0,
2010-03-26, 01:17:05,VALID,998.897,VALID,0,VALID,89.0682,VALID,0,VALID,22.8623,VALID,127,VALID,0,
2010-03-26, 01:18:05,VALID,998.882,VALID,0,VALID,89.2055,VALID,0,VALID,22.8818,VALID,127,VALID,0,
2010-03-26, 01:19:05,VALID,998.88,VALID,0,VALID,89.1445,VALID,0,VALID,22.8818,VALID,127,VALID,0,
2010-03-26, 01:20:05,VALID,998.891,VALID,0,VALID,89.0682,VALID,0,VALID,22.8818,VALID,127,VALID,0,
2010-03-26, 01:21:05,VALID,998.885,VALID,0,VALID,88.9766,VALID,0,VALID,22.8818,VALID,127,VALID,0,
2010-03-26, 01:22:05,VALID,998.88,VALID,0,VALID,88.9614,VALID,0,VALID,22.8818,VALID,127,VALID,0,
2010-03-26, 01:23:05,VALID,998.852,VALID,0,VALID,88.8164,VALID,0,VALID,22.841,VALID,127,VALID,0,
2010-03-26, 01:24:05,VALID,998.866,VALID,0,VALID,89.0529,VALID,0,VALID,22.8427,VALID,126,VALID,0,
2010-03-26, 01:25:05,VALID,998.836,VALID,0,VALID,89.1216,VALID,0,VALID,22.88,VALID,108,VALID,0.584375,
2010-03-26, 01:26:05,VALID,998.792,VALID,0,VALID,89.0834,VALID,0,VALID,22.9208,VALID,108,VALID,0.526563,
2010-03-26, 01:27:05,VALID,998.817,VALID,0,VALID,88.9003,VALID,0,VALID,22.9581,VALID,108,VALID,0.625781,
2010-03-26, 01:28:05,VALID,998.819,VALID,0,VALID,88.8622,VALID,0,VALID,22.9971,VALID,108,VALID,0.514453,
2010-03-26, 01:29:05,VALID,998.839,VALID,0,VALID,88.7325,VALID,0,VALID,23.0378,VALID,108,VALID,0.708984,
2010-03-26, 01:30:05,VALID,998.81,VALID,0,VALID,88.618,VALID,0,VALID,23.0573,VALID,111,VALID,0.71875,
2010-03-26, 01:31:05,VALID,998.813,VALID,0,VALID,88.618,VALID,0,VALID,23.0573,VALID,111,VALID,0.690625,
2010-03-26, 01:32:05,VALID,998.802,VALID,0,VALID,88.6333,VALID,0,VALID,23.0573,VALID,111,VALID,0.612891,
2010-03-26, 01:33:05,VALID,998.802,VALID,0,VALID,88.6028,VALID,0,VALID,23.0769,VALID,111,VALID,0.346484,
2010-03-26, 01:34:05,VALID,998.79,VALID,0,VALID,88.4807,VALID,0,VALID,23.0573,VALID,111,VALID,0,
2010-03-26, 01:35:05,VALID,998.787,VALID,0,VALID,88.496,VALID,0,VALID,23.0769,VALID,111,VALID,0.00859375,
2010-03-26, 01:36:05,VALID,998.769,VALID,0,VALID,88.6104,VALID,0,VALID,23.0573,VALID,111,VALID,0,
2010-03-26, 01:37:05,VALID,998.729,VALID,0,VALID,88.6409,VALID,0,VALID,23.0573,VALID,111,VALID,0.245703,
2010-03-26, 01:38:05,VALID,998.715,VALID,0,VALID,88.4807,VALID,0,VALID,23.0786,VALID,111,VALID,0,
2010-03-26, 01:39:05,VALID,998.698,VALID,0,VALID,88.6257,VALID,0,VALID,23.0378,VALID,111,VALID,0,
2010-03-26, 01:40:05,VALID,998.668,VALID,0,VALID,88.5417,VALID,0,VALID,23.0573,VALID,111,VALID,0,
2010-03-26, 01:41:05,VALID,998.679,VALID,0,VALID,88.6104,VALID,0,VALID,23.0573,VALID,111,VALID,0,
2010-03-26, 01:42:05,VALID,998.684,VALID,0,VALID,88.557,VALID,0,VALID,23.0573,VALID,111,VALID,0.192578,
2010-03-26, 01:43:05,VALID,998.657,VALID,0,VALID,88.557,VALID,0,VALID,23.0573,VALID,112,VALID,0.433984,
2010-03-26, 01:44:05,VALID,998.659,VALID,0,VALID,88.2442,VALID,0,VALID,23.0573,VALID,119,VALID,0.81875,
2010-03-26, 01:45:05,VALID,998.608,VALID,0,VALID,88.29,VALID,0,VALID,23.0786,VALID,119,VALID,0.692969,
2010-03-26, 01:46:05,VALID,998.625,VALID,0,VALID,87.9924,VALID,0,VALID,23.0964,VALID,119,VALID,1.00781,
2010-03-26, 01:47:05,VALID,998.631,VALID,0,VALID,87.7025,VALID,0,VALID,23.0573,VALID,119,VALID,0.879297,
2010-03-26, 01:48:05,VALID,998.646,VALID,0,VALID,87.8551,VALID,0,VALID,23.0573,VALID,119,VALID,0.804297,
2010-03-26, 01:49:05,VALID,998.609,VALID,0,VALID,87.8856,VALID,0,VALID,22.9971,VALID,119,VALID,0.809375,
2010-03-26, 01:50:05,VALID,998.624,VALID,0,VALID,88.0077,VALID,0,VALID,23.0183,VALID,119,VALID,0.674609,
2010-03-26, 01:51:05,VALID,998.576,VALID,0,VALID,88.2594,VALID,0,VALID,22.9988,VALID,109,VALID,0.691016,
2010-03-26, 01:52:05,VALID,998.598,VALID,0,VALID,88.3052,VALID,0,VALID,22.9793,VALID,109,VALID,0.78125,
2010-03-26, 01:53:05,VALID,998.586,VALID,0,VALID,88.2976,VALID,0,VALID,22.9793,VALID,109,VALID,0.692969,
2010-03-26, 01:54:05,VALID,998.58,VALID,0,VALID,88.4578,VALID,0,VALID,22.9598,VALID,110,VALID,0.677734,
2010-03-26, 01:55:05,VALID,998.586,VALID,0,VALID,88.6638,VALID,0,VALID,22.9793,VALID,109,VALID,0.573047,
2010-03-26, 01:56:05,VALID,998.571,VALID,0,VALID,88.7401,VALID,0,VALID,22.9793,VALID,109,VALID,0.554297,
2010-03-26, 01:57:05,VALID,998.586,VALID,0,VALID,88.9156,VALID,0,VALID,22.9776,VALID,110,VALID,0.560547,
2010-03-26, 01:58:05,VALID,998.583,VALID,0,VALID,88.9232,VALID,0,VALID,22.9988,VALID,110,VALID,0.580078,
2010-03-26, 01:59:05,VALID,998.571,VALID,0,VALID,89.1063,VALID,0,VALID,22.9988,VALID,110,VALID,0.510156,
2010-03-26, 02:00:05,VALID,998.584,VALID,0,VALID,89.1597,VALID,0,VALID,23.0183,VALID,110,VALID,0.5875,
2010-03-26, 02:01:05,VALID,998.574,VALID,0,VALID,89.3352,VALID,0,VALID,23.0183,VALID,110,VALID,0.560156,
2010-03-26, 02:02:05,VALID,998.558,VALID,0,VALID,89.381,VALID,0,VALID,23.0378,VALID,110,VALID,0.483594,
2010-03-26, 02:03:05,VALID,998.551,VALID,0,VALID,89.2894,VALID,0,VALID,23.0183,VALID,110,VALID,0.516797,
2010-03-26, 02:04:05,VALID,998.513,VALID,0,VALID,89.3886,VALID,0,VALID,23.0166,VALID,110,VALID,0.308594,
2010-03-26, 02:05:05,VALID,998.508,VALID,0,VALID,89.4191,VALID,0,VALID,22.9988,VALID,110,VALID,0.457031,
2010-03-26, 02:06:05,VALID,998.481,VALID,0,VALID,89.4954,VALID,0,VALID,23.0183,VALID,110,VALID,0.529297,
2010-03-26, 02:07:05,VALID,998.504,VALID,0,VALID,89.4726,VALID,0,VALID,23.0183,VALID,109,VALID,0.478125,
2010-03-26, 02:08:05,VALID,998.477,VALID,0,VALID,89.4344,VALID,0,VALID,23.0183,VALID,109,VALID,0.350781,
2010-03-26, 02:09:05,VALID,998.48,VALID,0,VALID,89.381,VALID,0,VALID,22.9581,VALID,109,VALID,0.438672,
2010-03-26, 02:10:05,VALID,998.501,VALID,0,VALID,89.4268,VALID,0,VALID,22.9598,VALID,109,VALID,0.654297,
2010-03-26, 02:11:05,VALID,998.45,VALID,0,VALID,89.4115,VALID,0,VALID,22.9403,VALID,108,VALID,0.739453,
2010-03-26, 02:12:05,VALID,998.443,VALID,0,VALID,89.4191,VALID,0,VALID,22.9013,VALID,106,VALID,0.723437,
2010-03-26, 02:13:05,VALID,998.389,VALID,0,VALID,89.4649,VALID,0,VALID,22.903,VALID,106,VALID,0.690625,
2010-03-26, 02:14:05,VALID,998.366,VALID,0,VALID,89.4497,VALID,0,VALID,22.8445,VALID,106,VALID,0.615234,
2010-03-26, 02:15:05,VALID,998.346,VALID,0,VALID,89.5107,VALID,0,VALID,22.7842,VALID,106,VALID,0.59375,
2010-03-26, 02:16:05,VALID,998.325,VALID,0,VALID,89.7091,VALID,0,VALID,22.7452,VALID,106,VALID,0.626953,
2010-03-26, 02:17:05,VALID,998.286,VALID,0,VALID,89.7777,VALID,0,VALID,22.7062,VALID,106,VALID,0.26875,
2010-03-26, 02:18:05,VALID,998.24,VALID,0,VALID,89.9914,VALID,0,VALID,22.7062,VALID,106,VALID,0.395703,
2010-03-26, 02:19:05,VALID,998.26,VALID,0,VALID,90.0143,VALID,0,VALID,22.6867,VALID,106,VALID,0.294531,
2010-03-26, 02:20:05,VALID,998.252,VALID,0,VALID,90.1211,VALID,0,VALID,22.6672,VALID,106,VALID,0.232422,
2010-03-26, 02:21:05,VALID,998.249,VALID,0,VALID,90.266,VALID,0,VALID,22.6672,VALID,106,VALID,0.355078,
2010-03-26, 02:22:05,VALID,998.233,VALID,0,VALID,90.4797,VALID,0,VALID,22.6655,VALID,106,VALID,0.387109,
2010-03-26, 02:23:05,VALID,998.227,VALID,0,VALID,90.7543,VALID,0,VALID,22.6867,VALID,106,VALID,0.435547,
2010-03-26, 02:24:05,VALID,998.238,VALID,0,VALID,90.7925,VALID,0,VALID,22.7062,VALID,111,VALID,0.599609,
2010-03-26, 02:25:05,VALID,998.209,VALID,0,VALID,90.9756,VALID,0,VALID,22.7452,VALID,123,VALID,0.673047,
2010-03-26, 02:26:05,VALID,998.203,VALID,0,VALID,90.8535,VALID,0,VALID,22.7452,VALID,123,VALID,0.736328,
2010-03-26, 02:27:05,VALID,998.202,VALID,0,VALID,90.7009,VALID,0,VALID,22.7257,VALID,134,VALID,0.665234,
2010-03-26, 02:28:05,VALID,998.194,VALID,0,VALID,90.5941,VALID,0,VALID,22.7062,VALID,137,VALID,0.523438,
2010-03-26, 02:29:05,VALID,998.203,VALID,0,VALID,90.5331,VALID,0,VALID,22.6672,VALID,139,VALID,0.414844,
2010-03-26, 02:30:05,VALID,998.21,VALID,0,VALID,90.5026,VALID,0,VALID,22.6069,VALID,143,VALID,0.777344,
2010-03-26, 02:31:05,VALID,998.199,VALID,0,VALID,90.205,VALID,0,VALID,22.6282,VALID,142,VALID,1.23008,
2010-03-26, 02:32:05,VALID,998.209,VALID,0,VALID,89.8998,VALID,0,VALID,22.6087,VALID,138,VALID,1.03906,
2010-03-26, 02:33:05,VALID,998.178,VALID,0,VALID,89.6786,VALID,0,VALID,22.5874,VALID,138,VALID,1.02813,
2010-03-26, 02:34:05,VALID,998.152,VALID,0,VALID,89.6709,VALID,0,VALID,22.5874,VALID,138,VALID,0.976172,
2010-03-26, 02:35:05,VALID,998.135,VALID,0,VALID,89.5794,VALID,0,VALID,22.6282,VALID,141,VALID,1.03555,
2010-03-26, 02:36:05,VALID,998.136,VALID,0,VALID,89.4344,VALID,0,VALID,22.6477,VALID,144,VALID,1.02422,
2010-03-26, 02:37:05,VALID,998.133,VALID,0,VALID,89.2284,VALID,0,VALID,22.6867,VALID,134,VALID,0.970312,
2010-03-26, 02:38:05,VALID,998.095,VALID,0,VALID,89.03,VALID,0,VALID,22.6655,VALID,141,VALID,1.13867,
2010-03-26, 02:39:05,VALID,998.128,VALID,0,VALID,88.8774,VALID,0.112286,VALID,22.7045,VALID,136,VALID,1.10859,
2010-03-26, 02:40:05,VALID,998.151,VALID,0,VALID,88.6714,VALID,0,VALID,22.7257,VALID,144,VALID,0.860156,
2010-03-26, 02:41:05,VALID,998.18,VALID,0,VALID,88.5112,VALID,0,VALID,22.7452,VALID,150,VALID,0.789063,
2010-03-26, 02:42:05,VALID,998.191,VALID,0,VALID,88.5799,VALID,0,VALID,22.7452,VALID,139,VALID,1.24609,
2010-03-26, 02:43:05,VALID,998.232,VALID,0,VALID,88.3663,VALID,0,VALID,22.7647,VALID,134,VALID,0.900781,
2010-03-26, 02:44:05,VALID,998.168,VALID,0,VALID,88.2671,VALID,0,VALID,22.7842,VALID,133,VALID,1.11641,
2010-03-26, 02:45:05,VALID,998.167,VALID,0,VALID,88.0916,VALID,0,VALID,22.7842,VALID,130,VALID,0.921875,
2010-03-26, 02:46:05,VALID,998.188,VALID,0,VALID,88.0458,VALID,0,VALID,22.7842,VALID,127,VALID,0.936328,
2010-03-26, 02:47:05,VALID,998.175,VALID,0,VALID,88.0306,VALID,0,VALID,22.763,VALID,126,VALID,0.876562,
2010-03-26, 02:48:05,VALID,998.183,VALID,0,VALID,88.1145,VALID,0,VALID,22.7647,VALID,124,VALID,0.965625,
2010-03-26, 02:49:05,VALID,998.175,VALID,0,VALID,88.0458,VALID,0,VALID,22.7435,VALID,125,VALID,0.963672,
2010-03-26, 02:50:05,VALID,998.173,VALID,0,VALID,87.9237,VALID,0,VALID,22.7842,VALID,117,VALID,0.496094,
2010-03-26, 02:51:05,VALID,998.161,VALID,0,VALID,87.9237,VALID,0,VALID,22.7647,VALID,117,VALID,0.561719,
2010-03-26, 02:52:05,VALID,998.17,VALID,0,VALID,87.9695,VALID,0,VALID,22.7452,VALID,120,VALID,0.521484,
2010-03-26, 02:53:05,VALID,998.143,VALID,0,VALID,87.9848,VALID,0,VALID,22.7452,VALID,120,VALID,0.202344,
2010-03-26, 02:54:05,VALID,998.119,VALID,0,VALID,87.8932,VALID,0,VALID,22.7257,VALID,120,VALID,0.0511719,
2010-03-26, 02:55:05,VALID,998.092,VALID,0,VALID,87.8398,VALID,0,VALID,22.7062,VALID,120,VALID,0.0117188,
2010-03-26, 02:56:05,VALID,998.094,VALID,0,VALID,87.8932,VALID,0,VALID,22.6672,VALID,120,VALID,0.0125,
2010-03-26, 02:57:05,VALID,998.065,VALID,0,VALID,87.9466,VALID,0,VALID,22.6672,VALID,120,VALID,0.213672,
2010-03-26, 02:58:05,VALID,998.063,VALID,0,VALID,87.9848,VALID,0,VALID,22.6477,VALID,120,VALID,0.0121094,
2010-03-26, 02:59:05,VALID,998.052,VALID,0,VALID,88.0687,VALID,0,VALID,22.6087,VALID,120,VALID,0.161719,
2010-03-26, 03:00:05,VALID,998.052,VALID,0,VALID,88.1297,VALID,0,VALID,22.6087,VALID,120,VALID,0.383203,
2010-03-26, 03:01:05,VALID,998.025,VALID,0,VALID,88.206,VALID,0,VALID,22.5892,VALID,120,VALID,0.0347656,
2010-03-26, 03:02:05,VALID,998.01,VALID,0,VALID,88.4807,VALID,0,VALID,22.5696,VALID,119,VALID,0.5,
2010-03-26, 03:03:05,VALID,997.973,VALID,0,VALID,88.6104,VALID,0,VALID,22.5696,VALID,103,VALID,0.715625,
2010-03-26, 03:04:05,VALID,998.012,VALID,0,VALID,88.6638,VALID,0,VALID,22.5892,VALID,98,VALID,0.758203,
2010-03-26, 03:05:05,VALID,997.985,VALID,0,VALID,88.4654,VALID,0,VALID,22.6087,VALID,98,VALID,0.530469,
2010-03-26, 03:06:05,VALID,997.97,VALID,0,VALID,88.5265,VALID,0,VALID,22.6087,VALID,98,VALID,0.582031,
2010-03-26, 03:07:05,VALID,997.957,VALID,0,VALID,88.4807,VALID,0,VALID,22.6282,VALID,98,VALID,0.416797,
2010-03-26, 03:08:05,VALID,997.953,VALID,0,VALID,88.4273,VALID,0,VALID,22.6477,VALID,98,VALID,0.248047,
2010-03-26, 03:09:05,VALID,997.979,VALID,0,VALID,88.4807,VALID,0,VALID,22.6477,VALID,102,VALID,0.450781,
2010-03-26, 03:10:05,VALID,997.949,VALID,0,VALID,88.3968,VALID,0,VALID,22.6672,VALID,103,VALID,0.390625,
2010-03-26, 03:11:05,VALID,997.991,VALID,0,VALID,88.3892,VALID,0,VALID,22.646,VALID,103,VALID,0.213281,
2010-03-26, 03:12:05,VALID,998.002,VALID,0,VALID,88.3586,VALID,0.112286,VALID,22.6867,VALID,103,VALID,0.286328,
2010-03-26, 03:13:05,VALID,998.024,VALID,0,VALID,88.3739,VALID,0,VALID,22.6672,VALID,103,VALID,0.104297,
2010-03-26, 03:14:05,VALID,998.025,VALID,0,VALID,88.412,VALID,0,VALID,22.6672,VALID,103,VALID,0,
2010-03-26, 03:15:05,VALID,998.021,VALID,0,VALID,88.3586,VALID,0,VALID,22.6672,VALID,103,VALID,0,
2010-03-26, 03:16:05,VALID,998.048,VALID,0,VALID,88.3205,VALID,0,VALID,22.6477,VALID,103,VALID,0,
2010-03-26, 03:17:05,VALID,998.053,VALID,0,VALID,88.5189,VALID,0,VALID,22.6477,VALID,103,VALID,0,
2010-03-26, 03:18:05,VALID,998.078,VALID,0,VALID,88.4883,VALID,0,VALID,22.6264,VALID,103,VALID,0,
2010-03-26, 03:19:05,VALID,998.089,VALID,0,VALID,88.6104,VALID,0,VALID,22.6477,VALID,103,VALID,0,
2010-03-26, 03:20:05,VALID,998.092,VALID,0,VALID,88.557,VALID,0,VALID,22.6282,VALID,103,VALID,0,
2010-03-26, 03:21:05,VALID,998.082,VALID,0,VALID,88.6943,VALID,0,VALID,22.6282,VALID,103,VALID,0,
2010-03-26, 03:22:05,VALID,998.074,VALID,0,VALID,88.8164,VALID,0,VALID,22.6264,VALID,103,VALID,0,
2010-03-26, 03:23:05,VALID,998.101,VALID,0,VALID,88.702,VALID,0.112286,VALID,22.6672,VALID,103,VALID,0,
2010-03-26, 03:24:05,VALID,998.087,VALID,0,VALID,88.8317,VALID,0,VALID,22.6867,VALID,103,VALID,0,
2010-03-26, 03:25:05,VALID,998.086,VALID,0,VALID,88.7783,VALID,0,VALID,22.7062,VALID,103,VALID,0,
2010-03-26, 03:26:05,VALID,998.098,VALID,0,VALID,88.763,VALID,0,VALID,22.7452,VALID,103,VALID,0,
2010-03-26, 03:27:05,VALID,998.113,VALID,0,VALID,88.2594,VALID,0,VALID,22.7062,VALID,103,VALID,0,
2010-03-26, 03:28:05,VALID,998.15,VALID,0,VALID,88.1832,VALID,0,VALID,22.6672,VALID,103,VALID,0,
2010-03-26, 03:29:05,VALID,998.126,VALID,0,VALID,88.2366,VALID,0,VALID,22.6477,VALID,103,VALID,0,
2010-03-26, 03:30:05,VALID,998.155,VALID,0,VALID,88.3739,VALID,0,VALID,22.6087,VALID,103,VALID,0,
2010-03-26, 03:31:05,VALID,998.173,VALID,0,VALID,88.3815,VALID,0,VALID,22.5892,VALID,103,VALID,0,
2010-03-26, 03:32:05,VALID,998.19,VALID,0,VALID,88.5494,VALID,0,VALID,22.5306,VALID,103,VALID,0,
2010-03-26, 03:33:05,VALID,998.163,VALID,0,VALID,88.7783,VALID,0,VALID,22.5306,VALID,103,VALID,0,
2010-03-26, 03:34:05,VALID,998.178,VALID,0,VALID,88.9385,VALID,0,VALID,22.5306,VALID,103,VALID,0,
2010-03-26, 03:35:05,VALID,998.196,VALID,0,VALID,89.1292,VALID,0,VALID,22.5094,VALID,103,VALID,0,
2010-03-26, 03:36:05,VALID,998.197,VALID,0,VALID,89.236,VALID,0,VALID,22.5484,VALID,103,VALID,0,
2010-03-26, 03:37:05,VALID,998.18,VALID,0,VALID,89.381,VALID,0,VALID,22.5696,VALID,103,VALID,0,
2010-03-26, 03:38:04,VALID,998.209,VALID,0,VALID,89.1063,VALID,0,VALID,22.5484,VALID,103,VALID,0,
2010-03-26, 03:39:04,VALID,998.215,VALID,0,VALID,88.8469,VALID,0,VALID,22.5094,VALID,103,VALID,0,
2010-03-26, 03:40:04,VALID,998.192,VALID,0,VALID,88.8088,VALID,0,VALID,22.4509,VALID,103,VALID,0,
2010-03-26, 03:41:04,VALID,998.208,VALID,0,VALID,89.1368,VALID,0,VALID,22.4119,VALID,103,VALID,0,
2010-03-26, 03:42:04,VALID,998.254,VALID,0,VALID,89.1826,VALID,0,VALID,22.4136,VALID,103,VALID,0,
2010-03-26, 03:43:04,VALID,998.251,VALID,0,VALID,89.3276,VALID,0,VALID,22.3746,VALID,103,VALID,0,
2010-03-26, 03:44:04,VALID,998.268,VALID,0,VALID,89.5031,VALID,0.112286,VALID,22.3551,VALID,103,VALID,0,
2010-03-26, 03:45:04,VALID,998.302,VALID,0,VALID,89.648,VALID,0,VALID,22.3339,VALID,103,VALID,0,
2010-03-26, 03:46:04,VALID,998.314,VALID,0,VALID,89.7014,VALID,0.112286,VALID,22.3551,VALID,103,VALID,0,
2010-03-26, 03:47:04,VALID,998.358,VALID,0,VALID,89.9456,VALID,0,VALID,22.3534,VALID,103,VALID,0,
2010-03-26, 03:48:04,VALID,998.396,VALID,0,VALID,90.2355,VALID,0,VALID,22.3941,VALID,103,VALID,0,
2010-03-26, 03:49:04,VALID,998.423,VALID,0,VALID,90.2737,VALID,0.112286,VALID,22.4331,VALID,105,VALID,0,
2010-03-26, 03:50:04,VALID,998.389,VALID,0,VALID,90.2279,VALID,0,VALID,22.4721,VALID,133,VALID,0.178125,